Location: Eschertshofen
(49.3064°N, 11.5756°E)
Time: 15:47:08
(UTC+00:00)

CZ-2C R/B - Pass Details

Date: 18 September 2020
Orbit: 704 x 908 km, 98.1° (Epoch: 30 October)

Event Time Altitude Azimuth Distance (km) Brightness Sun altitude
Rises 17:56:40 0° 163° (SSE) 3,248 6.0 -6.8°
Reaches altitude 10° 17:58:54 10° 163° (SSE) 2,354 5.3 -7.2°
Maximum altitude 18:04:09 88° 74° (ENE) 833 3.2 -8.0°
Drops below altitude 10° 18:09:44 10° 346° (NNW) 2,505 6.0 -8.9°
Sets 18:12:11 0° 347° (NNW) 3,473 6.8 -9.3°
